Regional Weather Roundup
Issued by NWS Glasgow, MT

Home | Current Version | Previous Version | Text Only | Print | Product List | Glossary On
Versions: 1 2 3 4 5 6 7 8 9 10 11 12 13 14 15 16 17 18 19 20 21 22 23 24 25 26 27 28 29 30 31 32 33 34 35 36 37 38 39 40 41 42 43 44 45 46 47 48 49 50
000
ASUS45 KGGW 230115
RWRGGW
HOURLY REGIONAL WEATHER ROUNDUP FOR NORTHEAST MONTANA
NATIONAL WEATHER SERVICE GLASGOW MONTANA
700 PM MDT SUN APR 22 2018

NOTE: "FAIR" INDICATES FEW OR NO CLOUDS BELOW 12,000 FEET WITH NO
SIGNIFICANT WEATHER AND/OR OBSTRUCTIONS TO VISISBILITY.

NORTHEAST MONTANA


CITY           SKY/WX    TMP DP  RH WIND       PRES   REMARKS
GLASGOW        MOSUNNY   62  25  24 VRB7      30.09S
PLENTYWOOD       N/A     59  19  21 W16G25      N/A
WOLF POINT     MOCLDY    64  27  24 NW9       30.10R
JORDAN           N/A     63  25  23 CALM      30.08S
WINNETT          N/A     62  29  28 N5          N/A
SIDNEY         MOCLDY    63  25  23 NW10      30.09R
GLENDIVE       PTCLDY    62  28  27 NW7       30.09S
MALTA            N/A     61  26  26 N7          N/A

FORT PECK REPORTS


CITY           SKY/WX    TMP DP  RH WIND       PRES   REMARKS
FORT PECK        N/A     61  27  27 NW3G14      N/A
THE PINES        N/A     59  22  24 N3          N/A

SOUTHEAST MONTANA


CITY           SKY/WX    TMP DP  RH WIND       PRES   REMARKS
BILLINGS       MOSUNNY   62  29  28 NE10      30.03S
MILES CITY     PTCLDY    63  27  25 NE8       30.07S
BAKER          PTCLDY    63  25  23 NE6       30.08F
LIVINGSTON     CLOUDY    59  31  34 NE9       30.01S

CENTRAL MONTANA


CITY           SKY/WX    TMP DP  RH WIND       PRES   REMARKS
HAVRE          SUNNY     57  22  25 NW12      30.13R
LEWISTOWN      MOSUNNY   53  24  32 N10       30.10R
GREAT FALLS    MOSUNNY   53  16  23 N16       30.11R
CUT BANK       MOSUNNY   50  15  24 N16       30.16R
HELENA         CLOUDY    58  21  24 N10       30.07R
BUTTE          LGT RAIN  50  31  48 MISG      30.09R
BOZEMAN        CLOUDY    56  35  45 SW10G22   30.05R

WESTERN MONTANA


CITY           SKY/WX    TMP DP  RH WIND       PRES   REMARKS
MISSOULA       MOSUNNY   56  22  26 N17G25    30.10R
KALISPELL      NOT AVBL

NORTH DAKOTA


CITY           SKY/WX    TMP DP  RH WIND       PRES   REMARKS
WILLISTON      PTCLDY    63  25  23 NW12      30.08R
DICKINSON      CLEAR     62  22  21 N6        30.07S
MINOT          CLEAR     62  27  26 SW6       30.07S
BISMARCK       CLOUDY    63  39  41 SE13      30.07R

SOUTHERN SASKATCHEWAN


CITY           SKY/WX    TMP DP  RH WIND       PRES   REMARKS
REGINA         PTCLDY    54  25  32 W23       30.09R
ESTEVAN        PTCLDY    59  25  27 NW14G23   30.06R
SWIFT CURRENT  PTSUNNY   50  25  37 NW15G21   30.11R




USA.gov is the U.S. government's official web portal to all federal, state and local government web resources and services.